FENGYUN 1C DEB

Satellite information

Favourite Embed

Satellite Type and Status

DEBRISIN ORBIT

Key statistics

Satellite FENGYUN 1C DEB at a glance.

Uptime

9618

Days in orbit

Revolutions

≈ 13.8

Per day

Orbit

SSO

Sun Synchronous Orbit

Inclination

98.9

Latest

Satellite identification and parameters

Extended collection of information and parameters for FENGYUN 1C DEB.

Object identification

Identified? True

Debris? True

Object name: FENGYUN 1C DEB

International designator: 1999-025EKU

Object number (NORAD): 37600

Object ID (CCSDS): 37600

Country: PEOPLES REPUBLIC OF CHINA (PRC)

Current information (Y/N): Y

RCS size: SMALL

Orbital parameters

Period: 104.326 minutes

Inclination: 98.9318 deg

SMA: 7341.005 km

Apoapsis: 1231.404 km

Periapsis: 694.335 km

RAAN: 51.7579 deg

Eccentricy: 0.03658006

Argument of periapsis: 309.2101 deg

Mean anomaly: 47.7096 deg

Mean motion: 13.80287368 rev/day

Mean motion (dot): 0.00004837 rev/day2

B* drag term: 0.0028200246 1/REarth

Two-line elements (TLE)

Creation date: Sept. 7, 2025, 9:49 a.m.

Reference frame: TEME

Reference center: EARTH

Epoch: Sept. 7, 2025, 4:16 a.m. UTC

TLE line 0: 0 FENGYUN 1C DEB

TLE line 1: 1 37600U 99025EKU 25250.17819461 .00004837 00000-0 28200-2 0 9998

TLE line 2: 2 37600 98.9318 51.7579 0365801 309.2101 47.7096 13.80287368871543

Live tracking on map

Real-time ground track for satellite FENGYUN 1C DEB.

In-orbit conjunctions

A list of the most updated potential collisions computed for object FENGYUN 1C DEB.

Target Orbit TCA Probability of collision Miss distance Type
CZ-6A DEB LEO 2025-08-16 06:25:58 0.0001115757 175.0 (m) DEBRIS
COSMOS 1605 LEO 2025-06-06 21:28:33 0.0008015332 594.0 (m) PAYLOAD

Associated space launch

Chinese polar orbiting meteorological satellite

FENGYUN 1C DEB was lifted into orbit during the mission ‘Long March 4B | Feng Yun 1C’, on board a Long March 4B space rocket.

The launch took place on May 10, 1999, 1:33 a.m. from Launch Complex 7.

For more information about the launch, click the button.

Launch to space Long March 4B | Feng Yun 1C
Long March 4B | Feng Yun 1C

Agency: N/A

Status: Launch Successful

Launch date: May 10, 1999, 1:33 a.m. UTC

Rocket: Long March 4B

Launch pad: Launch Complex 7

Location: Taiyuan Satellite Launch Center, People's Republic of China

...

Latest news about this satellite

There are no fresh news available about this satellite. Check back as we update our databases every day.


Newsletter sign-up

Weekly statistics, charts and insights to help you stay on top of the space industry.